Time,TemperatureF,DewpointF,PressureIn,WindDirection,WindDirectionDegrees,WindSpeedMPH,WindSpeedGustMPH,Humidity,HourlyPrecipIn,Conditions,Clouds,dailyrainin,SoftwareType,DateUTC
2013-01-29 00:09:00,46.0,43.0,30.21,ENE,74,0.0,0.0,90,0.00,,,0.00,weatherlink.com 1.10,2013-01-29 05:09:00,
2013-01-29 00:24:00,45.1,43.0,30.21,ENE,74,0.0,0.0,91,0.00,,,0.00,weatherlink.com 1.10,2013-01-29 05:24:00,
2013-01-29 00:39:00,44.5,42.0,30.20,ENE,74,0.0,0.0,91,0.00,,,0.00,weatherlink.com 1.10,2013-01-29 05:39:00,
2013-01-29 00:54:00,43.8,42.0,30.21,ENE,74,0.0,0.0,92,0.00,,,0.00,weatherlink.com 1.10,2013-01-29 05:54:00,
2013-01-29 01:09:00,43.3,41.0,30.20,ENE,74,0.0,0.0,92,0.00,,,0.00,weatherlink.com 1.10,2013-01-29 06:09:00,
2013-01-29 01:24:00,42.7,41.0,30.20,ENE,74,0.0,0.0,92,0.00,,,0.00,weatherlink.com 1.10,2013-01-29 06:24:00,
2013-01-29 01:39:00,42.3,41.0,30.20,ENE,74,0.0,0.0,93,0.00,,,0.00,weatherlink.com 1.10,2013-01-29 06:39:00,
2013-01-29 01:54:00,42.0,40.0,30.20,ENE,74,0.0,0.0,94,0.00,,,0.00,weatherlink.com 1.10,2013-01-29 06:54:00,
2013-01-29 02:09:00,41.6,40.0,30.20,ENE,74,0.0,0.0,94,0.00,,,0.00,weatherlink.com 1.10,2013-01-29 07:09:00,
2013-01-29 02:24:00,41.5,40.0,30.20,ENE,74,0.0,0.0,94,0.00,,,0.00,weatherlink.com 1.10,2013-01-29 07:24:00,
2013-01-29 02:39:00,41.4,40.0,30.20,ENE,74,0.0,0.0,95,0.00,,,0.00,weatherlink.com 1.10,2013-01-29 07:39:00,
2013-01-29 02:54:00,41.5,40.0,30.20,ENE,74,0.0,0.0,95,0.00,,,0.00,weatherlink.com 1.10,2013-01-29 07:54:00,
2013-01-29 03:09:00,41.3,40.0,30.20,ENE,74,0.0,0.0,94,0.00,,,0.00,weatherlink.com 1.10,2013-01-29 08:09:00,
2013-01-29 03:24:00,41.2,40.0,30.19,ENE,74,0.0,0.0,94,0.00,,,0.00,weatherlink.com 1.10,2013-01-29 08:24:00,
2013-01-29 03:39:00,41.0,39.0,30.19,ENE,74,0.0,0.0,94,0.00,,,0.00,weatherlink.com 1.10,2013-01-29 08:39:00,
2013-01-29 03:54:00,40.7,39.0,30.19,ENE,74,0.0,0.0,94,0.00,,,0.00,weatherlink.com 1.10,2013-01-29 08:54:00,
2013-01-29 04:09:00,40.7,39.0,30.18,ENE,74,0.0,0.0,95,0.00,,,0.00,weatherlink.com 1.10,2013-01-29 09:09:00,
2013-01-29 04:24:00,41.3,40.0,30.18,ENE,74,0.0,0.0,95,0.00,,,0.00,weatherlink.com 1.10,2013-01-29 09:24:00,
2013-01-29 04:40:00,42.0,41.0,30.17,ENE,74,0.0,0.0,95,0.00,,,0.00,weatherlink.com 1.10,2013-01-29 09:40:00,
2013-01-29 04:54:00,42.9,42.0,30.16,ENE,74,0.0,0.0,96,0.00,,,0.00,weatherlink.com 1.10,2013-01-29 09:54:00,
2013-01-29 05:10:00,43.4,42.0,30.16,ENE,74,0.0,0.0,96,0.00,,,0.00,weatherlink.com 1.10,2013-01-29 10:10:00,
2013-01-29 05:25:00,43.8,43.0,30.16,ENE,74,0.0,0.0,96,0.00,,,0.00,weatherlink.com 1.10,2013-01-29 10:25:00,
2013-01-29 05:40:00,44.2,43.0,30.15,ENE,74,0.0,0.0,96,0.00,,,0.00,weatherlink.com 1.10,2013-01-29 10:40:00,
2013-01-29 05:54:00,44.5,44.0,30.15,ENE,73,0.0,0.0,96,0.00,,,0.00,weatherlink.com 1.10,2013-01-29 10:54:00,
2013-01-29 06:09:00,44.9,44.0,30.15,ENE,74,0.0,0.0,96,0.00,,,0.00,weatherlink.com 1.10,2013-01-29 11:09:00,
2013-01-29 06:25:00,45.1,44.0,30.15,ENE,72,0.0,0.0,95,0.00,,,0.00,weatherlink.com 1.10,2013-01-29 11:25:00,
2013-01-29 06:40:00,45.5,44.0,30.15,ENE,74,0.0,0.0,95,0.00,,,0.00,weatherlink.com 1.10,2013-01-29 11:40:00,
2013-01-29 06:55:00,45.9,45.0,30.15,ENE,74,0.0,0.0,95,0.00,,,0.00,weatherlink.com 1.10,2013-01-29 11:55:00,
2013-01-29 07:10:00,46.3,45.0,30.14,ENE,74,0.0,0.0,95,0.00,,,0.00,weatherlink.com 1.10,2013-01-29 12:10:00,
2013-01-29 07:25:00,46.6,45.0,30.14,ENE,74,0.0,0.0,94,0.00,,,0.00,weatherlink.com 1.10,2013-01-29 12:25:00,
2013-01-29 07:40:00,46.9,45.0,30.14,ENE,73,0.0,0.0,94,0.00,,,0.00,weatherlink.com 1.10,2013-01-29 12:40:00,
2013-01-29 07:55:00,47.2,46.0,30.14,ENE,74,0.0,0.0,94,0.00,,,0.00,weatherlink.com 1.10,2013-01-29 12:55:00,
2013-01-29 08:10:00,47.6,46.0,30.14,ENE,74,0.0,0.0,93,0.00,,,0.00,weatherlink.com 1.10,2013-01-29 13:10:00,
2013-01-29 08:25:00,48.0,46.0,30.15,SSW,205,0.0,0.0,93,0.00,,,0.00,weatherlink.com 1.10,2013-01-29 13:25:00,
2013-01-29 08:40:00,48.4,46.0,30.15,South,188,0.0,0.0,92,0.00,,,0.00,weatherlink.com 1.10,2013-01-29 13:40:00,
2013-01-29 09:10:00,49.9,48.0,30.15,South,188,0.0,1.0,92,0.00,,,0.00,weatherlink.com 1.10,2013-01-29 14:10:00,
2013-01-29 09:25:00,50.4,48.0,30.14,South,187,0.0,0.0,91,0.00,,,0.00,weatherlink.com 1.10,2013-01-29 14:25:00,
2013-01-29 09:55:00,51.7,49.0,30.14,SW,227,0.0,0.0,90,0.00,,,0.00,weatherlink.com 1.10,2013-01-29 14:55:00,
2013-01-29 10:10:00,52.2,49.0,30.14,SW,226,0.0,0.0,89,0.00,,,0.00,weatherlink.com 1.10,2013-01-29 15:10:00,
2013-01-29 10:25:00,52.7,49.0,30.14,SW,227,0.0,0.0,88,0.00,,,0.00,weatherlink.com 1.10,2013-01-29 15:25:00,
2013-01-29 10:40:00,53.0,50.0,30.14,SW,226,0.0,1.0,88,0.00,,,0.00,weatherlink.com 1.10,2013-01-29 15:40:00,
2013-01-29 10:55:00,53.4,50.0,30.13,SW,227,0.0,0.0,88,0.00,,,0.00,weatherlink.com 1.10,2013-01-29 15:55:00,
2013-01-29 11:10:00,53.6,50.0,30.13,SW,226,0.0,1.0,88,0.00,,,0.00,weatherlink.com 1.10,2013-01-29 16:10:00,
2013-01-29 11:41:00,53.3,51.0,30.12,SW,226,0.0,0.0,92,0.00,,,0.00,weatherlink.com 1.10,2013-01-29 16:41:00,
2013-01-29 11:55:00,53.5,51.0,30.10,SW,226,0.0,0.0,92,0.00,,,0.00,weatherlink.com 1.10,2013-01-29 16:55:00,
2013-01-29 12:11:00,53.5,52.0,30.09,East,99,0.0,0.0,93,0.00,,,0.00,weatherlink.com 1.10,2013-01-29 17:11:00,
2013-01-29 12:26:00,53.6,52.0,30.08,East,99,0.0,0.0,93,0.00,,,0.00,weatherlink.com 1.10,2013-01-29 17:26:00,
2013-01-29 12:40:00,53.7,52.0,30.08,East,99,0.0,0.0,93,0.00,,,0.00,weatherlink.com 1.10,2013-01-29 17:40:00,
2013-01-29 13:10:00,54.1,53.0,30.06,East,99,0.0,0.0,94,0.00,,,0.00,weatherlink.com 1.10,2013-01-29 18:10:00,
2013-01-29 13:25:00,54.2,53.0,30.05,East,99,0.0,0.0,94,0.00,,,0.00,weatherlink.com 1.10,2013-01-29 18:25:00,
2013-01-29 13:41:00,54.4,53.0,30.04,East,99,0.0,1.0,94,0.00,,,0.00,weatherlink.com 1.10,2013-01-29 18:41:00,
2013-01-29 13:56:00,54.5,53.0,30.03,East,100,0.0,0.0,94,0.00,,,0.00,weatherlink.com 1.10,2013-01-29 18:56:00,
2013-01-29 14:11:00,54.5,53.0,30.02,East,100,0.0,0.0,94,0.00,,,0.00,weatherlink.com 1.10,2013-01-29 19:11:00,
2013-01-29 14:26:00,54.7,53.0,30.01,ESE,102,0.0,0.0,94,0.00,,,0.00,weatherlink.com 1.10,2013-01-29 19:26:00,
2013-01-29 14:41:00,55.0,53.0,30.00,ESE,102,0.0,0.0,94,0.00,,,0.00,weatherlink.com 1.10,2013-01-29 19:41:00,
2013-01-29 14:56:00,55.3,54.0,30.00,ESE,102,0.0,0.0,94,0.00,,,0.00,weatherlink.com 1.10,2013-01-29 19:56:00,
2013-01-29 15:11:00,55.6,54.0,30.00,ESE,102,0.0,0.0,94,0.00,,,0.00,weatherlink.com 1.10,2013-01-29 20:11:00,
2013-01-29 15:41:00,56.2,54.0,29.99,ESE,102,0.0,0.0,93,0.00,,,0.00,weatherlink.com 1.10,2013-01-29 20:41:00,
2013-01-29 15:56:00,56.5,55.0,29.98,ESE,102,0.0,0.0,93,0.00,,,0.00,weatherlink.com 1.10,2013-01-29 20:56:00,
2013-01-29 16:11:00,56.8,55.0,29.97,ESE,102,0.0,0.0,92,0.00,,,0.00,weatherlink.com 1.10,2013-01-29 21:11:00,
2013-01-29 16:26:00,57.1,55.0,29.96,ESE,102,0.0,1.0,92,0.00,,,0.00,weatherlink.com 1.10,2013-01-29 21:26:00,
2013-01-29 16:41:00,57.3,55.0,29.95,ENE,66,0.0,2.0,92,0.00,,,0.00,weatherlink.com 1.10,2013-01-29 21:41:00,
2013-01-29 16:56:00,57.7,55.0,29.95,ENE,66,0.0,0.0,92,0.00,,,0.00,weatherlink.com 1.10,2013-01-29 21:56:00,
2013-01-29 17:11:00,57.7,55.0,29.95,ENE,66,0.0,0.0,91,0.00,,,0.00,weatherlink.com 1.10,2013-01-29 22:11:00,
2013-01-29 17:41:00,57.4,55.0,29.93,East,86,0.0,2.0,92,0.00,,,0.00,weatherlink.com 1.10,2013-01-29 22:41:00,
2013-01-29 17:56:00,57.3,55.0,29.93,East,86,0.0,0.0,92,0.00,,,0.00,weatherlink.com 1.10,2013-01-29 22:56:00,
2013-01-29 18:11:00,57.0,55.0,29.93,East,86,0.0,0.0,92,0.00,,,0.00,weatherlink.com 1.10,2013-01-29 23:11:00,
2013-01-29 18:26:00,56.7,55.0,29.93,East,86,0.0,0.0,92,0.00,,,0.00,weatherlink.com 1.10,2013-01-29 23:26:00,
2013-01-29 18:42:00,56.4,55.0,29.93,East,86,0.0,0.0,93,0.00,,,0.00,weatherlink.com 1.10,2013-01-29 23:42:00,
2013-01-29 18:56:00,56.1,54.0,29.93,East,86,0.0,0.0,93,0.00,,,0.00,weatherlink.com 1.10,2013-01-29 23:56:00,
2013-01-29 19:11:00,55.9,54.0,29.94,East,86,0.0,1.0,93,0.00,,,0.00,weatherlink.com 1.10,2013-01-30 00:11:00,
2013-01-29 19:41:00,55.7,54.0,29.93,East,86,0.0,0.0,93,0.00,,,0.00,weatherlink.com 1.10,2013-01-30 00:41:00,
2013-01-29 20:12:00,55.1,54.0,29.91,East,86,0.0,1.0,94,0.00,,,0.00,weatherlink.com 1.10,2013-01-30 01:12:00,
2013-01-29 20:26:00,55.1,54.0,29.91,East,86,0.0,0.0,94,0.00,,,0.00,weatherlink.com 1.10,2013-01-30 01:26:00,
2013-01-29 20:41:00,55.2,54.0,29.92,East,86,0.0,0.0,94,0.00,,,0.00,weatherlink.com 1.10,2013-01-30 01:41:00,
2013-01-29 20:57:00,55.4,54.0,29.92,East,86,0.0,1.0,94,0.00,,,0.00,weatherlink.com 1.10,2013-01-30 01:57:00,
2013-01-29 21:11:00,55.5,54.0,29.91,East,86,0.0,0.0,94,0.00,,,0.00,weatherlink.com 1.10,2013-01-30 02:11:00,
2013-01-29 21:27:00,55.4,54.0,29.91,East,86,0.0,1.0,94,0.00,,,0.00,weatherlink.com 1.10,2013-01-30 02:27:00,
2013-01-29 21:41:00,55.4,54.0,29.90,East,86,0.0,0.0,94,0.00,,,0.00,weatherlink.com 1.10,2013-01-30 02:41:00,
2013-01-29 21:57:00,55.5,54.0,29.89,East,86,0.0,1.0,94,0.00,,,0.00,weatherlink.com 1.10,2013-01-30 02:57:00,
2013-01-29 22:11:00,55.3,53.0,29.88,East,83,0.0,2.0,93,0.00,,,0.00,weatherlink.com 1.10,2013-01-30 03:11:00,
2013-01-29 22:26:00,55.0,53.0,29.88,East,84,0.0,1.0,94,0.00,,,0.00,weatherlink.com 1.10,2013-01-30 03:26:00,
2013-01-29 22:44:00,55.0,53.0,29.87,East,84,0.0,0.0,94,0.00,,,0.00,weatherlink.com 1.10,2013-01-30 03:44:00,
2013-01-29 22:56:00,55.0,53.0,29.85,East,84,0.0,0.0,94,0.00,,,0.00,weatherlink.com 1.10,2013-01-30 03:56:00,
2013-01-29 23:14:00,54.9,53.0,29.85,East,84,0.0,0.0,94,0.00,,,0.00,weatherlink.com 1.10,2013-01-30 04:14:00,
2013-01-29 23:27:00,55.0,53.0,29.84,East,84,0.0,1.0,94,0.00,,,0.00,weatherlink.com 1.10,2013-01-30 04:27:00,
2013-01-29 23:42:00,54.8,53.0,29.83,East,83,0.0,0.0,94,0.00,,,0.00,weatherlink.com 1.10,2013-01-30 04:42:00,
2013-01-29 23:57:00,54.6,53.0,29.82,East,85,1.0,3.0,94,0.00,,,0.00,weatherlink.com 1.10,2013-01-30 04:57:00,